Location: Cicognara
(44.9500°N, 10.4667°E)
Time: 08:00:21
(UTC+00:00)

SPOT 5 - Pass Details

Date: 20 June 2021
Orbit: 623 x 815 km, 98.2° (Epoch: 04 August)

Event Time Altitude Azimuth Distance (km) Brightness Sun altitude
Exits shadow 20:48:17 18° 160° (SSE) 1,791 4.3 -13.4°
Maximum altitude 20:52:04 80° 76° (ENE) 762 2.9 -13.8°
Drops below altitude 10° 20:56:56 10° 349° (NNW) 2,210 6.5 -14.2°
Sets 20:59:09 0° 348° (NNW) 3,104 7.5 -14.5°
